Weather History for KSLH - February, 2013

Change the Weather History Date:

Monday, February 18, 2013

  Actual Average (KPLN) Record (KPLN)
Temperature  
Mean Temperature 22 °F -  
Max Temperature 34 °F 31 °F 53 °F (1981)
Min Temperature 10 °F 10 °F -32 °F (1979)
Degree Days  
Heating Degree Days 43    
Moisture  
Dew Point 15 °F    
Average Humidity 69    
Maximum Humidity 96    
Minimum Humidity 55    
Precipitation  
Precipitation 0.00 in - - ()
Sea Level Pressure  
Sea Level Pressure 29.81 in    
Wind  
Wind Speed 8 mph (SE)    
Max Wind Speed 14 mph    
Max Gust Speed 21 mph    
Visibility 9 miles    
Events Snow    
Averages and records for this station are not official NWS values.
T = Trace of Precipitation, MM = Missing Value Source: NWS Daily Summary

Daily Weather History Graph

Daily Weather History Graph

Search for Another Location

Airport or City:

Trip Planner

Search our weather history database for the weather conditions in past years. The results will help you decide how hot, cold, wet, or windy it might be!

Date:

Astronomy

Feb. 18, 2013 Rise Set
Actual Time 7:34 AM EST 6:09 PM EST
Civil Twilight 7:04 AM EST 6:40 PM EST
Nautical Twilight 6:30 AM EST 7:14 PM EST
Astronomical Twilight 5:55 AM EST 7:49 PM EST
Moon 11:46 AM EST (2/18) 2:22 AM EST (2/18)
Length of Visible Light 11h 35m
Length of Day
10h 34m
First Quarter, 58% of the Moon is Illuminated
Feb 18
First Quarter
Feb 25
Full
Mar 4
Last Quarter
Mar 11
New
Mar 19
First Quarter

Hourly Weather History & Observations

Time (EST) Temp. Windchill Dew Point Humidity Pressure Visibility Wind Dir Wind Speed Gust Speed Precip Events Conditions
12:15 AM 10.8 °F 4.5 °F 6.6 °F 83% 30.09 in 10.0 mi SSE 3.5 mph - N/A   Scattered Clouds
12:35 AM 12.7 °F 3.6 °F 6.6 °F 77% 30.10 in 10.0 mi SSE 5.8 mph - N/A   Scattered Clouds
12:55 AM 12.6 °F 3.4 °F 6.6 °F 77% 30.09 in 10.0 mi SSE 5.8 mph - N/A   Mostly Cloudy
1:15 AM 12.2 °F 4.3 °F 6.4 °F 78% 30.08 in 10.0 mi SSE 4.6 mph - N/A   Mostly Cloudy
1:35 AM 12.2 °F 6.1 °F 6.3 °F 77% 30.08 in 10.0 mi SSE 3.5 mph - N/A   Scattered Clouds
1:55 AM 12.2 °F 6.1 °F 6.3 °F 77% 30.08 in 10.0 mi SSE 3.5 mph - N/A   Mostly Cloudy
2:14 AM 12.0 °F 4.1 °F 5.9 °F 76% 30.08 in 10.0 mi SSE 4.6 mph - N/A   Mostly Cloudy
2:35 AM 12.4 °F 3.1 °F 6.1 °F 76% 30.08 in 10.0 mi SSE 5.8 mph - N/A   Mostly Cloudy
2:55 AM 12.4 °F 4.6 °F 6.1 °F 76% 30.07 in 10.0 mi SSE 4.6 mph - N/A   Overcast
3:14 AM 13.1 °F 4.0 °F 6.6 °F 75% 30.07 in 10.0 mi SSE 5.8 mph - N/A   Mostly Cloudy
3:35 AM 13.1 °F 2.8 °F 6.8 °F 76% 30.06 in 10.0 mi SSE 6.9 mph - N/A   Overcast
3:55 AM 13.6 °F 3.5 °F 6.8 °F 74% 30.05 in 10.0 mi SSE 6.9 mph - N/A   Overcast
4:15 AM 14.0 °F 3.9 °F 7.5 °F 75% 30.04 in 10.0 mi SE 6.9 mph - N/A   Overcast
4:35 AM 14.4 °F 5.5 °F 7.7 °F 75% 30.04 in 10.0 mi SSE 5.8 mph - N/A   Overcast
4:55 AM 14.9 °F 5.0 °F 7.7 °F 73% 30.03 in 10.0 mi SSE 6.9 mph - N/A   Overcast
5:15 AM 15.4 °F 4.6 °F 8.1 °F 73% 30.02 in 10.0 mi SSE 8.1 mph - N/A   Overcast
5:35 AM 15.6 °F 5.9 °F 8.4 °F 73% 30.01 in 10.0 mi SSE 6.9 mph - N/A   Overcast
5:55 AM 15.8 °F 4.2 °F 8.4 °F 73% 29.99 in 10.0 mi SSE 9.2 mph - N/A   Overcast
6:15 AM 15.8 °F 2.7 °F 8.6 °F 73% 29.98 in 10.0 mi SSE 11.5 mph 16.1 mph N/A   Overcast
6:35 AM 16.2 °F 3.9 °F 8.6 °F 72% 29.96 in 10.0 mi SE 10.4 mph - N/A   Overcast
6:55 AM 16.7 °F 6.2 °F 9.0 °F 72% 29.96 in 10.0 mi SSE 8.1 mph - N/A   Overcast
7:15 AM 16.7 °F 5.3 °F 9.3 °F 73% 29.94 in 10.0 mi SSE 9.2 mph - N/A   Overcast
7:35 AM 17.4 °F 5.4 °F 9.7 °F 72% 29.93 in 10.0 mi SSE 10.4 mph - N/A   Overcast
7:54 AM 18.1 °F 7.9 °F 10.0 °F 71% 29.92 in 10.0 mi SSE 8.1 mph - N/A   Overcast
8:15 AM 18.5 °F 9.3 °F 10.2 °F 70% 29.92 in 10.0 mi SSE 6.9 mph - N/A   Overcast
8:35 AM 18.9 °F 7.2 °F 10.4 °F 70% 29.90 in 10.0 mi SE 10.4 mph - N/A   Overcast
8:55 AM 19.4 °F 7.9 °F 10.8 °F 69% 29.90 in 10.0 mi SSE 10.4 mph - N/A   Overcast
9:15 AM 19.6 °F 7.4 °F 11.8 °F 72% 29.89 in 1.8 mi SSE 11.5 mph - N/A Snow Light Snow
9:35 AM 19.6 °F 8.1 °F 14.0 °F 79% 29.88 in 3.0 mi SSE 10.4 mph 16.1 mph N/A Snow Light Snow
9:55 AM 20.5 °F 9.2 °F 14.0 °F 76% 29.87 in 10.0 mi SE 10.4 mph - N/A   Overcast
10:15 AM 21.7 °F 10.8 °F 13.5 °F 70% 29.85 in 10.0 mi SE 10.4 mph - N/A   Overcast
10:35 AM 22.1 °F 10.6 °F 12.2 °F 66% 29.85 in 10.0 mi SE 11.5 mph - N/A   Overcast
10:55 AM 23.0 °F 11.7 °F 12.2 °F 63% 29.84 in 10.0 mi SE 11.5 mph - N/A   Overcast
11:14 AM 23.9 °F 13.5 °F 12.4 °F 62% 29.83 in 10.0 mi SE 10.4 mph - N/A   Overcast
11:35 AM 25.2 °F 13.9 °F 13.1 °F 60% 29.82 in 10.0 mi SE 12.7 mph - N/A   Overcast
11:55 AM 25.7 °F 15.1 °F 13.6 °F 60% 29.81 in 10.0 mi SSE 11.5 mph 17.3 mph N/A   Overcast
12:15 PM 27.1 °F 16.9 °F 14.2 °F 58% 29.80 in 10.0 mi SSE 11.5 mph 20.7 mph N/A   Overcast
12:35 PM 28.4 °F 18.0 °F 14.7 °F 57% 29.78 in 10.0 mi SE 12.7 mph 19.6 mph N/A   Scattered Clouds
12:54 PM 29.1 °F 19.4 °F 15.4 °F 57% 29.77 in 10.0 mi SSE 11.5 mph - N/A   Clear
1:15 PM 29.8 °F 19.3 °F 15.8 °F 56% 29.76 in 10.0 mi SE 13.8 mph 19.6 mph N/A   Clear
1:35 PM 30.2 °F 20.8 °F 16.3 °F 56% 29.75 in 10.0 mi SE 11.5 mph - N/A   Clear
1:55 PM 31.1 °F 22.4 °F 17.1 °F 56% 29.74 in 10.0 mi SSE 10.4 mph 17.3 mph N/A   Clear
2:15 PM 32.0 °F 22.5 °F 17.8 °F 56% 29.73 in 10.0 mi SSE 12.7 mph 19.6 mph N/A   Clear
2:34 PM 32.9 °F 24.1 °F 18.3 °F 55% 29.71 in 10.0 mi SE 11.5 mph 18.4 mph N/A   Clear
2:55 PM 33.3 °F 24.6 °F 18.7 °F 55% 29.70 in 10.0 mi SE 11.5 mph - N/A   Clear
3:15 PM 34.0 °F 25.0 °F 19.4 °F 55% 29.68 in 10.0 mi SSE 12.7 mph 17.3 mph N/A   Clear
3:35 PM 34.3 °F 26.5 °F 19.9 °F 56% 29.68 in 10.0 mi SE 10.4 mph 17.3 mph N/A   Clear
3:55 PM 34.7 °F 26.9 °F 20.1 °F 55% 29.67 in 10.0 mi SE 10.4 mph - N/A   Clear
4:15 PM 34.0 °F 26.0 °F 20.5 °F 58% 29.66 in 10.0 mi ESE 10.4 mph - N/A   Clear
4:35 PM 34.2 °F 25.7 °F 20.1 °F 57% 29.66 in 10.0 mi ESE 11.5 mph - N/A   Clear
4:55 PM 33.8 °F 24.8 °F 20.7 °F 59% 29.66 in 10.0 mi SE 12.7 mph - N/A   Clear
5:15 PM 33.8 °F 24.8 °F 20.7 °F 59% 29.66 in 10.0 mi SE 12.7 mph - N/A   Clear
5:35 PM 33.8 °F 26.4 °F 21.2 °F 60% 29.65 in 10.0 mi SE 9.2 mph - N/A   Scattered Clouds
5:55 PM 33.3 °F 25.7 °F 21.7 °F 63% 29.65 in 10.0 mi ESE 9.2 mph - N/A   Clear
6:15 PM 33.1 °F 25.5 °F 22.1 °F 64% 29.65 in 10.0 mi ESE 9.2 mph - N/A   Mostly Cloudy
6:35 PM 33.3 °F 25.1 °F 22.6 °F 65% 29.64 in 10.0 mi ESE 10.4 mph - N/A   Overcast
6:55 PM 33.3 °F 24.6 °F 22.5 °F 65% 29.64 in 10.0 mi ESE 11.5 mph - N/A   Overcast
7:14 PM 32.9 °F 23.2 °F 22.5 °F 65% 29.63 in 10.0 mi ESE 13.8 mph - N/A   Overcast
7:35 PM 32.7 °F 23.9 °F 22.8 °F 67% 29.62 in 10.0 mi ESE 11.5 mph - N/A   Overcast
7:55 PM 32.5 °F 23.7 °F 23.0 °F 68% 29.60 in 10.0 mi ESE 11.5 mph - N/A   Overcast
8:14 PM 32.0 °F 23.0 °F 23.0 °F 69% 29.59 in 10.0 mi ESE 11.5 mph - N/A   Overcast
8:35 PM 32.0 °F 23.0 °F 23.4 °F 70% 29.58 in 10.0 mi SE 11.5 mph 17.3 mph N/A   Overcast
8:55 PM 32.0 °F 23.0 °F 23.9 °F 72% 29.58 in 10.0 mi SE 11.5 mph 16.1 mph N/A   Overcast
9:14 PM 32.0 °F 23.0 °F 24.4 °F 74% 29.56 in 10.0 mi SE 11.5 mph - N/A   Overcast
9:35 PM 32.0 °F 23.0 °F 25.3 °F 76% 29.55 in 10.0 mi SE 11.5 mph 18.4 mph N/A   Overcast
9:55 PM 32.2 °F 23.2 °F 26.6 °F 80% 29.55 in 7.0 mi SE 11.5 mph 18.4 mph N/A   Overcast
10:15 PM 32.0 °F 23.0 °F 27.9 °F 85% 29.54 in 5.0 mi SSE 11.5 mph 18.4 mph N/A   Overcast
10:35 PM 32.0 °F 23.6 °F 28.6 °F 87% 29.52 in 5.0 mi SE 10.4 mph - N/A   Overcast
11:15 PM 32.0 °F 23.6 °F 30.2 °F 93% 29.50 in 4.0 mi SSE 10.4 mph - N/A   Overcast
11:35 PM 32.0 °F 25.6 °F 30.9 °F 96% 29.48 in 5.0 mi SSE 6.9 mph - N/A   Overcast
11:54 PM 32.0 °F 24.8 °F 31.1 °F 96% 29.46 in 4.0 mi SE 8.1 mph - N/A   Overcast